Total_Precipitation_Accumulation
0.00 0.00 0.00 0.00 0.00 0.00 0.02 0.01 0.01 0.03 0.07 0.12 0.19 0.33 0.90 1.07 1.10 1.34 1.28 1.39 1.44 1.51 2.10 1.94 1.49 1.52 1.51 1.67 1.33 0.88 1.45 1.73 1.11 1.32 0.66 0.99 0.53 0.36 0.17 0.45 0.10 0.08 0.06 0.03 0.05 0.02 0.00 0.00 0.00 0.00 0.00 0.00 0.00 0.00 0.00 0.00 0.00 0.00 0.01 0.00 0.00 0.01 0.00 0.01 0.01 0.05 0.03 0.03 0.02 0.03 0.03 0.07 0.04 0.05 0.03 0.07 0.05 0.11 0.06 0.03 0.02 0.03 0.07 0.06 0.04 0.07
0.00 0.00 0.00 0.00 0.01 0.00 0.00 0.00 0.00 0.01 0.01 0.05 0.15 0.31 0.54 1.06 0.51 1.26 1.11 1.21 1.81 1.54 1.92 1.82 1.47 1.25 1.37 1.83 1.50 1.50 1.11 1.13 1.31 1.32 0.90 0.80 0.48 0.55 0.44 0.31 0.12 0.13 0.07 0.06 0.04 0.02 0.01 0.00 0.01 0.00 0.00 0.00 0.00 0.00 0.00 0.00 0.00 0.00 0.00 0.00 0.00 0.00 0.00 0.00 0.01 0.03 0.03 0.02 0.02 0.03 0.18 0.06 0.09 0.03 0.05 0.08 0.04 0.11 0.04 0.02 0.01 0.05 0.11 0.03 0.07 0.14
0.00 0.00 0.00 0.00 0.00 0.00 0.00 0.00 0.00 0.00 0.00 0.08 0.08 0.27 0.24 0.41 0.48 0.95 1.64 1.61 2.30 1.90 2.13 1.62 1.58 2.05 2.06 1.83 2.15 1.77 0.69 0.80 0.80 1.09 0.76 1.16 0.86 0.60 0.44 0.65 0.48 0.12 0.07 0.08 0.03 0.05 0.01 0.00 0.00 0.00 0.00 0.00 0.00 0.00 0.00 0.00 0.00 0.00 0.00 0.00 0.00 0.00 0.00 0.00 0.00 0.01 0.02 0.01 0.01 0.05 0.07 0.11 0.16 0.07 0.06 0.05 0.06 0.05 0.05 0.02 0.02 0.07 0.08 0.04 0.04 0.05
0.00 0.00 0.00 0.00 0.00 0.00 0.00 0.00 0.00 0.00 0.00 0.06 0.09 0.15 0.42 0.50 0.48 0.71 1.29 1.48 1.68 1.77 2.20 2.31 2.01 2.19 2.29 1.97 2.04 1.57 1.29 1.53 1.44 1.19 1.08 0.98 0.94 0.31 0.18 0.33 0.41 0.40 0.07 0.08 0.05 0.03 0.01 0.02 0.01 0.00 0.00 0.00 0.00 0.00 0.00 0.00 0.00 0.00 0.00 0.00 0.00 0.00 0.00 0.00 0.02 0.02 0.02 0.03 0.04 0.14 0.02 0.17 0.03 0.16 0.03 0.02 0.04 0.09 0.08 0.06 0.04 0.02 0.03 0.07 0.07 0.11
0.00 0.00 0.00 0.00 0.00 0.00 0.00 0.00 0.00 0.00 0.00 0.00 0.07 0.33 0.37 0.35 0.42 0.57 0.93 1.05 1.12 1.03 1.52 1.64 1.93 2.08 2.33 2.19 2.54 2.31 2.26 2.58 1.96 1.41 1.14 0.97 0.63 0.59 0.36 0.16 0.30 0.50 0.38 0.13 0.05 0.08 0.01 0.00 0.01 0.00 0.00 0.00 0.00 0.00 0.00 0.00 0.00 0.00 0.00 0.00 0.00 0.00 0.00 0.01 0.01 0.00 0.00 0.05 0.03 0.06 0.05 0.05 0.02 0.06 0.03 0.03 0.06 0.09 0.05 0.05 0.05 0.04 0.04 0.04 0.07 0.04
0.00 0.00 0.00 0.00 0.00 0.00 0.00 0.00 0.00 0.00 0.01 0.01 0.01 0.05 0.24 0.68 0.35 0.41 0.47 0.61 0.67 1.77 1.26 1.24 1.48 2.05 1.66 1.92 1.45 1.90 1.69 1.93 1.65 1.49 0.94 0.74 0.88 0.48 0.26 0.17 0.23 0.41 0.37 0.14 0.12 0.03 0.01 0.02 0.04 0.00 0.00 0.00 0.00 0.00 0.00 0.00 0.00 0.00 0.00 0.00 0.00 0.00 0.00 0.01 0.00 0.01 0.01 0.02 0.01 0.03 0.05 0.09 0.03 0.09 0.02 0.02 0.05 0.05 0.04 0.21 0.04 0.06 0.14 0.06 0.08 0.04
0.00 0.00 0.00 0.00 0.00 0.00 0.00 0.00 0.00 0.00 0.00 0.00 0.17 0.00 0.01 0.13 0.30 0.41 0.55 0.63 0.83 0.82 1.24 0.92 0.96 1.46 1.72 2.17 2.29 1.64 1.26 1.10 1.19 0.85 0.82 0.75 0.91 0.50 0.23 0.21 0.25 0.29 0.28 0.24 0.11 0.04 0.06 0.02 0.01 0.00 0.00 0.00 0.00 0.00 0.00 0.01 0.00 0.00 0.00 0.00 0.00 0.00 0.00 0.00 0.00 0.01 0.01 0.01 0.01 0.04 0.03 0.06 0.04 0.05 0.02 0.03 0.06 0.04 0.01 0.11 0.06 0.07 0.08 0.06 0.07 0.12
0.00 0.00 0.00 0.00 0.00 0.00 0.00 0.00 0.00 0.01 0.00 0.02 0.02 0.00 0.01 0.03 0.20 0.19 0.45 0.42 0.78 0.51 1.43 0.99 0.96 1.33 1.40 1.48 1.48 1.95 1.35 1.05 1.28 0.93 1.40 1.38 0.60 0.35 0.26 0.23 0.26 0.36 0.13 0.18 0.10 0.08 0.04 0.03 0.01 0.00 0.00 0.01 0.00 0.00 0.00 0.01 0.00 0.00 0.00 0.00 0.00 0.00 0.00 0.00 0.00 0.00 0.01 0.00 0.02 0.05 0.03 0.07 0.02 0.03 0.02 0.04 0.05 0.00 0.04 0.06 0.06 0.04 0.08 0.03 0.16 0.08
0.00 0.00 0.00 0.00 0.00 0.00 0.00 0.00 0.00 0.00 0.00 0.00 0.00 0.00 0.01 0.03 0.15 0.21 0.17 0.36 0.44 0.47 1.22 0.91 1.18 0.83 0.99 1.35 1.20 1.90 1.81 1.16 0.82 0.97 1.60 1.02 0.79 0.59 0.25 0.26 0.35 0.45 0.30 0.16 0.15 0.15 0.09 0.03 0.01 0.01 0.00 0.02 0.00 0.00 0.00 0.00 0.00 0.01 0.00 0.00 0.00 0.00 0.00 0.00 0.00 0.00 0.00 0.00 0.02 0.06 0.05 0.02 0.02 0.05 0.03 0.02 0.01 0.01 0.03 0.03 0.06 0.04 0.06 0.01 0.03 0.05
0.00 0.00 0.00 0.00 0.00 0.00 0.00 0.00 0.00 0.00 0.03 0.00 0.00 0.00 0.00 0.01 0.08 0.22 0.24 0.38 0.40 0.46 0.65 0.64 0.83 0.80 1.18 1.42 1.17 1.58 1.25 0.64 0.37 0.51 0.89 1.02 1.02 0.57 0.38 0.54 0.60 0.36 0.21 0.28 0.37 0.14 0.34 0.06 0.07 0.01 0.02 0.00 0.00 0.01 0.01 0.00 0.00 0.01 0.00 0.00 0.00 0.00 0.00 0.00 0.00 0.00 0.00 0.01 0.02 0.02 0.03 0.07 0.02 0.02 0.04 0.08 0.04 0.05 0.05 0.04 0.02 0.08 0.05 0.01 0.04 0.07
0.00 0.00 0.00 0.00 0.00 0.00 0.00 0.00 0.00 0.00 0.00 0.00 0.00 0.01 0.02 0.04 0.08 0.23 0.31 0.36 0.38 0.41 0.41 0.64 0.92 0.51 0.99 0.98 0.71 0.97 1.34 0.82 0.42 0.40 0.52 0.89 0.73 0.51 0.38 0.45 0.46 0.40 0.41 0.32 0.23 0.49 0.12 0.06 0.06 0.02 0.02 0.01 0.00 0.02 0.04 0.04 0.02 0.02 0.05 0.00 0.01 0.00 0.00 0.00 0.00 0.00 0.01 0.00 0.01 0.01 0.18 0.07 0.07 0.02 0.05 0.03 0.03 0.08 0.02 0.06 0.03 0.04 0.08 0.13 0.03 0.03
0.00 0.00 0.00 0.00 0.00 0.00 0.00 0.00 0.00 0.00 0.01 0.01 0.11 0.01 0.01 0.14 0.09 0.17 0.82 0.52 0.42 0.29 0.53 0.63 0.63 0.67 0.64 1.05 0.42 0.30 0.48 0.37 0.37 0.41 0.27 0.55 0.87 0.47 0.65 0.42 0.21 0.28 0.27 0.37 0.34 0.28 0.21 0.16 0.19 0.08 0.04 0.04 0.03 0.04 0.05 0.07 0.09 0.04 0.05 0.06 0.00 0.00 0.00 0.01 0.01 0.00 0.02 0.01 0.01 0.01 0.10 0.05 0.09 0.06 0.05 0.15 0.09 0.07 0.04 0.05 0.05 0.04 0.02 0.07 0.03 0.05
0.00 0.00 0.00 0.00 0.00 0.00 0.00 0.00 0.00 0.01 0.00 0.00 0.02 0.01 0.13 0.24 0.18 0.63 1.20 0.37 0.18 0.63 0.71 0.64 1.12 1.37 0.57 0.58 0.40 0.16 0.36 0.53 0.51 0.32 0.18 0.16 0.54 0.29 0.48 0.47 0.16 0.19 0.14 0.27 0.39 0.34 0.18 0.13 0.09 0.09 0.07 0.02 0.03 0.04 0.02 0.03 0.06 0.07 0.03 0.07 0.02 0.00 0.00 0.00 0.00 0.01 0.01 0.01 0.01 0.02 0.05 0.03 0.08 0.12 0.02 0.09 0.07 0.05 0.04 0.04 0.03 0.04 0.08 0.04 0.03 0.04
0.00 0.00 0.00 0.00 0.00 0.00 0.00 0.00 0.02 0.01 0.00 0.02 0.02 0.05 0.01 0.11 0.13 0.19 0.45 0.29 0.42 0.19 0.31 0.57 0.73 1.01 0.85 0.28 0.14 0.13 0.16 0.24 0.41 0.40 0.19 0.18 0.32 0.39 0.16 0.23 0.20 0.11 0.12 0.20 0.31 0.35 0.37 0.11 0.20 0.08 0.08 0.07 0.02 0.06 0.01 0.02 0.02 0.04 0.04 0.04 0.05 0.01 0.00 0.01 0.02 0.00 0.00 0.00 0.01 0.02 0.03 0.04 0.05 0.11 0.07 0.04 0.07 0.01 0.04 0.01 0.02 0.06 0.06 0.03 0.03 0.05
0.00 0.00 0.00 0.00 0.01 0.00 0.00 0.00 0.00 0.01 0.00 0.00 0.03 0.00 0.00 0.02 0.12 0.18 0.25 0.53 0.38 0.65 0.72 0.71 0.51 0.91 0.66 1.50 0.21 0.10 0.04 0.10 0.19 0.37 0.30 0.26 0.29 0.46 0.35 0.23 0.26 0.13 0.16 0.22 0.22 0.30 0.17 0.12 0.08 0.20 0.13 0.12 0.09 0.03 0.34 0.15 0.20 0.14 0.06 0.06 0.03 0.06 0.05 0.01 0.01 0.01 0.00 0.01 0.00 0.00 0.03 0.02 0.01 0.01 0.01 0.04 0.01 0.01 0.01 0.01 0.02 0.02 0.04 0.02 0.04 0.03
0.00 0.00 0.00 0.00 0.00 0.00 0.00 0.00 0.00 0.01 0.01 0.01 0.00 0.00 0.00 0.02 0.00 0.06 0.48 0.35 0.29 0.56 0.21 0.83 0.49 0.73 1.14 0.35 0.32 0.20 0.03 0.11 0.34 0.78 0.66 0.25 0.19 0.57 1.14 0.64 0.29 0.22 0.30 0.29 0.49 0.46 0.34 0.29 0.19 0.12 0.24 0.13 0.14 0.11 0.36 0.15 0.21 0.58 0.33 0.09 0.12 0.05 0.03 0.05 0.01 0.00 0.00 0.01 0.00 0.00 0.00 0.02 0.01 0.02 0.02 0.02 0.02 0.00 0.02 0.00 0.01 0.00 0.02 0.10 0.07 0.01
0.00 0.00 0.00 0.00 0.00 0.00 0.00 0.00 0.01 0.00 0.12 0.11 0.01 0.01 0.02 0.00 0.01 0.05 0.03 0.01 0.03 0.29 0.33 0.33 0.14 0.39 0.24 0.34 0.45 0.27 0.20 0.70 0.43 0.17 0.23 0.29 0.12 0.17 0.36 0.74 0.81 0.74 1.15 0.87 1.21 1.25 1.04 0.88 0.25 0.37 0.25 0.29 0.27 0.21 0.33 0.22 0.57 0.56 0.90 0.37 0.14 0.25 0.30 0.04 0.04 0.02 0.01 0.01 0.00 0.00 0.00 0.00 0.02 0.01 0.01 0.02 0.06 0.03 0.02 0.01 0.02 0.01 0.02 0.03 0.02 0.03
0.00 0.00 0.00 0.00 0.00 0.00 0.00 0.00 0.00 0.00 0.00 0.06 0.10 0.05 0.00 0.00 0.00 0.04 0.22 0.32 0.16 0.25 0.44 0.28 0.40 0.24 0.30 1.03 0.32 0.35 0.29 0.32 0.23 0.06 0.22 0.20 0.15 0.14 0.32 0.79 1.15 1.17 1.29 1.17 1.49 1.10 0.79 1.06 0.82 0.85 0.60 0.85 0.36 0.21 0.46 0.51 0.61 0.73 0.67 0.62 0.30 0.21 0.27 0.12 0.05 0.06 0.10 0.02 0.01 0.00 0.00 0.00 0.00 0.01 0.01 0.02 0.04 0.03 0.02 0.02 0.00 0.03 0.01 0.01 0.02 0.02
0.00 0.00 0.00 0.00 0.00 0.00 0.00 0.00 0.02 0.00 0.00 0.03 0.20 0.06 0.05 0.47 0.09 0.05 0.07 0.10 0.14 0.15 0.35 0.24 0.17 0.33 0.34 0.71 0.41 0.61 0.60 0.11 0.12 0.07 0.07 0.09 0.20 0.10 0.13 0.35 0.71 0.65 1.03 1.35 1.51 1.68 1.32 1.05 1.06 1.56 1.12 0.87 0.94 0.54 0.38 0.59 0.62 0.70 0.47 0.27 0.53 0.38 0.30 0.12 0.09 0.11 0.06 0.10 0.04 0.00 0.08 0.00 0.00 0.00 0.00 0.00 0.01 0.02 0.02 0.03 0.03 0.02 0.01 0.00 0.02 0.00
0.00 0.00 0.01 0.00 0.00 0.00 0.00 0.02 0.10 0.11 0.01 0.00 0.00 0.02 0.00 0.29 0.30 0.26 0.10 0.19 0.16 0.50 0.10 0.83 0.33 0.89 0.69 0.50 0.27 0.58 0.72 0.69 0.24 0.12 0.22 0.17 0.13 0.21 0.05 0.23 0.62 0.84 1.07 1.75 1.20 1.29 0.69 0.41 0.60 1.06 1.15 1.37 1.23 0.81 0.67 1.10 0.35 0.23 0.44 0.30 0.42 0.71 0.63 0.18 0.13 0.09 0.09 0.12 0.07 0.03 0.02 0.01 0.00 0.00 0.00 0.00 0.03 0.02 0.02 0.03 0.06 0.01 0.01 0.00 0.02 0.01
0.00 0.00 0.01 0.01 0.00 0.00 0.02 0.00 0.00 0.13 0.22 0.03 0.03 0.00 0.02 0.01 0.05 0.02 0.14 0.16 0.15 0.49 0.18 0.29 0.39 0.46 0.64 0.39 1.19 0.81 1.06 0.51 0.26 0.42 0.38 0.34 0.17 0.10 0.10 0.08 0.68 0.74 0.85 1.86 1.83 1.05 0.90 0.55 0.37 0.80 1.21 0.96 0.74 0.83 0.71 0.88 0.68 0.63 0.55 0.50 0.69 0.61 0.34 0.27 0.30 0.56 0.23 0.15 0.19 0.12 0.02 0.05 0.01 0.03 0.00 0.01 0.02 0.04 0.01 0.01 0.03 0.04 0.06 0.02 0.01 0.00
0.00 0.00 0.01 0.01 0.01 0.00 0.00 0.00 0.00 0.00 0.01 0.02 0.07 0.14 0.06 0.07 0.05 0.03 0.10 0.00 0.03 0.03 0.02 0.07 0.52 0.44 0.49 0.40 0.33 0.46 0.25 0.31 0.40 0.29 0.36 0.34 0.29 0.65 0.82 0.62 0.09 0.40 0.90 0.54 0.50 0.68 0.92 1.00 0.77 0.82 0.91 0.37 0.46 0.76 1.37 0.72 0.91 0.87 0.53 0.49 0.59 0.21 0.70 0.56 0.77 0.98 0.67 0.54 0.43 0.41 0.29 0.35 0.22 0.00 0.00 0.00 0.02 0.00 0.01 0.02 0.04 0.01 0.01 0.00 0.01 0.01
0.00 0.00 0.00 0.02 0.00 0.01 0.00 0.00 0.00 0.00 0.02 0.01 0.01 0.03 0.02 0.07 0.08 0.20 0.07 0.21 0.09 0.06 0.02 0.17 0.11 0.88 0.20 0.19 0.57 0.40 0.54 0.41 0.24 0.16 0.29 0.42 0.50 0.54 0.73 0.55 0.82 0.63 1.29 1.28 0.82 1.11 1.21 0.75 1.03 0.87 0.53 0.41 0.57 0.53 0.57 0.57 0.73 1.07 1.33 1.47 1.09 1.40 1.40 1.02 1.02 1.12 0.85 0.88 0.71 0.38 0.30 0.27 0.25 0.08 0.03 0.00 0.00 0.02 0.02 0.00 0.00 0.00 0.00 0.01 0.05 0.02
0.00 0.00 0.01 0.00 0.00 0.00 0.00 0.00 0.00 0.02 0.03 0.05 0.03 0.03 0.06 0.03 0.05 0.16 0.12 0.08 0.06 0.09 0.09 0.23 0.23 0.91 0.25 0.33 0.39 0.28 0.56 0.31 0.22 0.07 0.19 0.32 0.49 0.47 1.03 0.39 0.51 0.90 0.95 1.06 0.93 1.14 1.79 1.10 0.81 0.96 0.61 0.94 0.97 0.93 0.90 1.09 0.90 1.20 1.53 2.27 2.00 1.94 2.02 1.73 1.78 1.30 1.06 0.72 0.49 0.48 0.53 0.26 0.28 0.24 0.15 0.09 0.03 0.01 0.00 0.00 0.01 0.00 0.01 0.00 0.01 0.02
0.00 0.03 0.01 0.05 0.04 0.01 0.01 0.00 0.01 0.00 0.01 0.09 0.15 0.13 0.06 0.09 0.04 0.04 0.07 0.08 0.03 0.01 0.15 0.16 0.24 0.53 0.32 0.15 0.33 0.36 0.59 0.43 0.53 0.28 0.36 0.96 0.71 0.74 0.72 0.51 0.50 0.84 0.66 0.91 0.97 1.16 1.09 1.24 1.52 0.92 0.88 0.68 0.75 0.65 0.48 0.43 0.70 0.92 1.14 1.32 1.03 1.95 2.36 0.88 1.10 1.13 1.33 1.01 0.73 0.67 0.43 0.41 0.47 0.28 0.55 0.73 0.47 0.12 0.03 0.01 0.02 0.01 0.01 0.00 0.00 0.01
0.04 0.04 0.05 0.09 0.03 0.07 0.05 0.08 0.12 0.11 0.16 0.04 0.06 0.11 0.05 0.03 0.06 0.06 0.14 0.18 0.05 0.04 0.03 0.12 0.22 0.49 0.31 0.13 0.34 0.41 0.81 0.64 0.79 0.45 0.61 0.68 0.78 0.83 0.47 0.48 0.50 0.55 0.88 0.71 0.77 1.43 1.52 1.21 1.08 0.83 1.08 1.03 1.65 1.11 0.93 0.91 0.68 0.92 1.70 1.16 1.32 1.40 1.76 1.55 1.05 1.07 1.18 1.15 0.83 0.58 0.35 0.21 0.21 0.34 0.37 0.44 0.55 0.45 0.12 0.05 0.02 0.02 0.00 0.01 0.03 0.06
0.04 0.02 0.00 0.01 0.04 0.13 0.29 0.19 0.05 0.05 0.05 0.07 0.11 0.01 0.04 0.01 0.01 0.08 0.16 0.17 0.18 0.09 0.15 0.25 0.21 0.36 0.39 0.40 0.54 0.65 0.35 0.39 0.69 0.59 0.70 0.76 0.79 0.86 0.77 0.65 0.57 0.76 1.19 1.30 1.13 1.19 1.09 1.36 1.23 1.85 1.86 1.16 1.43 1.34 1.91 1.00 1.09 1.44 1.34 1.10 0.98 1.02 1.00 1.27 0.93 0.91 1.60 1.42 0.82 0.73 0.47 0.37 0.32 0.10 0.36 0.73 0.92 0.89 0.33 0.11 0.04 0.03 0.02 0.04 0.03 0.02
0.02 0.11 0.02 0.01 0.00 0.00 0.03 0.01 0.07 0.04 0.03 0.05 0.01 0.09 0.02 0.04 0.04 0.11 0.11 0.29 0.02 0.07 0.23 0.25 0.20 0.11 0.24 0.24 0.39 0.30 0.31 0.45 0.55 0.51 0.52 0.79 0.80 0.94 0.68 0.66 0.54 0.67 0.76 0.72 1.33 1.15 0.88 1.28 1.83 3.07 1.66 1.40 2.28 2.20 1.16 1.17 1.47 1.87 1.31 1.04 1.13 1.39 0.91 0.39 0.38 0.71 0.73 0.68 0.62 0.75 0.90 0.86 0.69 0.99 0.93 0.93 0.48 0.60 0.58 0.33 0.03 0.06 0.05 0.04 0.02 0.01
0.03 0.09 0.07 0.01 0.01 0.02 0.01 0.03 0.01 0.14 0.05 0.06 0.07 0.03 0.06 0.02 0.01 0.14 0.08 0.06 0.04 0.09 0.43 0.17 0.15 0.17 0.26 0.41 0.27 0.24 0.24 0.32 0.41 0.87 0.37 0.69 0.82 0.71 0.60 0.99 0.90 0.73 1.04 0.83 0.89 1.15 1.61 1.13 1.53 1.06 1.59 1.64 1.76 1.16 1.31 1.36 1.70 1.79 1.41 1.48 1.94 1.24 1.29 1.05 1.06 0.60 0.48 0.90 1.54 1.56 1.68 1.61 1.52 1.16 1.12 1.09 0.59 0.88 1.23 0.50 0.03 0.02 0.02 0.02 0.02 0.02
0.04 0.06 0.04 0.01 0.01 0.02 0.00 0.02 0.00 0.02 0.09 0.02 0.01 0.00 0.00 0.04 0.06 0.02 0.02 0.07 0.13 0.13 0.12 0.11 0.28 0.33 0.26 0.47 0.24 0.39 0.34 0.42 0.65 0.50 0.62 0.59 0.70 1.07 0.93 1.41 1.11 1.00 1.25 1.36 1.70 1.34 0.95 0.78 1.20 1.05 1.17 1.70 1.26 1.31 1.56 1.44 1.96 1.62 1.29 1.63 1.89 1.57 1.48 1.27 1.55 0.98 1.56 1.80 2.33 1.66 1.27 1.68 1.62 1.39 1.02 1.33 1.21 1.15 0.71 0.19 0.06 0.03 0.03 0.02 0.02 0.01
0.01 0.10 0.02 0.06 0.05 0.03 0.02 0.02 0.03 0.00 0.00 0.01 0.00 0.03 0.01 0.01 0.00 0.03 0.03 0.00 0.01 0.13 0.08 0.12 0.14 0.36 0.77 0.51 0.39 0.61 0.31 0.43 0.29 0.40 1.01 0.82 0.78 0.76 1.04 1.60 1.93 1.81 1.88 1.23 1.77 1.93 1.31 0.99 1.06 1.27 1.38 1.41 1.47 1.63 1.58 1.27 2.10 3.32 3.42 2.43 2.16 1.94 1.50 0.93 1.70 1.91 1.44 1.70 1.88 1.99 1.76 1.94 1.73 1.53 1.50 1.69 1.34 1.15 0.77 0.58 0.45 0.23 0.05 0.03 0.01 0.01
0.02 0.06 0.03 0.17 0.11 0.05 0.04 0.06 0.04 0.02 0.00 0.04 0.02 0.02 0.01 0.02 0.02 0.02 0.07 0.06 0.10 0.28 0.11 0.15 0.30 0.39 0.77 0.60 0.89 0.45 0.67 0.48 0.31 0.41 0.56 1.20 0.75 0.88 1.24 0.85 0.84 1.13 1.48 1.77 1.28 0.84 0.99 1.25 1.09 1.14 1.11 1.27 2.18 1.98 1.86 2.12 1.91 1.79 2.79 2.65 2.28 2.41 2.32 1.65 1.53 1.47 1.75 1.68 1.26 1.13 1.51 1.95 1.54 1.41 1.35 1.16 1.25 1.25 1.08 0.78 0.52 0.46 0.43 0.24 0.09 0.07
0.07 0.07 0.16 0.11 0.09 0.14 0.07 0.11 0.09 0.13 0.12 0.12 0.04 0.10 0.07 0.03 0.02 0.04 0.03 0.06 0.11 0.12 0.25 0.26 0.63 0.38 0.53 0.31 0.29 0.53 0.45 0.19 0.39 0.42 0.39 0.65 1.12 0.83 0.64 0.81 1.26 1.99 1.26 1.28 1.18 1.37 0.80 0.92 0.98 1.64 1.10 1.48 1.99 1.81 1.56 1.82 2.08 2.50 1.76 1.68 2.02 2.38 3.06 3.32 2.40 2.00 2.36 2.48 1.95 1.97 2.32 1.82 1.97 1.79 1.32 1.44 1.41 1.12 0.97 0.68 0.78 0.66 0.54 0.29 0.17 0.21
0.10 0.06 0.15 0.11 0.36 0.16 0.10 0.15 0.20 0.43 0.40 0.61 0.19 0.06 0.02 0.10 0.26 0.14 0.17 0.14 0.23 0.33 0.62 0.48 0.59 0.46 0.39 0.39 0.29 0.44 0.40 0.56 0.49 0.55 0.56 0.78 0.80 0.78 1.28 1.62 1.69 1.15 0.99 0.89 0.98 1.33 1.64 1.46 1.02 1.46 1.82 1.40 1.78 1.87 1.42 1.88 1.80 1.67 1.93 2.02 3.00 3.66 3.65 3.07 2.95 2.36 2.23 2.80 2.27 1.96 2.22 2.80 2.57 2.16 1.75 1.85 1.77 1.56 1.30 0.88 0.67 0.67 0.48 0.36 0.40 0.22
0.12 0.13 0.17 0.18 0.20 0.25 0.17 0.28 0.26 0.52 0.37 0.10 0.05 0.19 0.19 0.10 0.19 0.12 0.20 0.08 0.09 0.33 0.57 0.69 0.58 0.89 1.02 0.58 0.85 0.68 0.79 0.78 0.54 0.82 1.16 0.56 0.89 1.93 1.85 1.70 1.06 0.98 0.84 0.71 0.82 0.91 1.06 2.27 2.09 2.56 1.91 1.73 1.80 1.28 1.15 1.11 1.62 2.49 2.89 2.79 3.09 2.42 3.02 2.15 2.46 2.14 1.92 2.24 2.32 2.18 2.40 1.97 2.05 1.80 1.50 1.99 1.86 1.66 1.70 1.81 1.42 1.22 1.00 0.99 1.17 1.41
0.08 0.24 0.28 0.17 0.13 0.05 0.25 0.67 0.70 0.50 0.43 0.11 0.08 0.22 0.18 0.09 0.05 0.11 0.34 0.07 0.16 0.21 0.44 0.71 0.72 1.02 1.31 1.16 1.04 0.90 0.57 0.74 0.76 0.61 0.55 0.98 1.29 0.89 0.99 0.99 1.67 1.01 1.04 1.21 1.28 1.45 1.58 1.51 1.97 1.74 1.94 1.91 2.17 1.62 1.87 2.25 2.31 2.23 2.26 2.03 2.26 2.73 2.78 1.96 1.92 1.95 1.83 1.80 2.82 2.16 2.05 1.51 2.27 1.85 1.69 2.24 1.92 2.02 1.99 2.13 2.43 2.95 2.23 1.83 2.20 2.32
0.13 0.23 0.29 0.36 0.14 0.40 0.28 0.55 0.68 0.91 0.37 0.38 0.35 0.52 0.32 0.42 0.31 0.32 0.59 0.22 0.19 0.23 0.55 0.58 0.99 1.03 0.83 0.85 0.88 0.71 0.86 0.62 0.80 0.92 0.69 0.67 0.86 0.92 0.86 1.19 1.56 1.92 1.31 1.21 1.29 1.37 0.55 0.52 0.64 1.01 0.80 0.96 1.40 1.54 1.49 2.13 2.07 1.42 2.09 2.61 2.05 2.75 3.00 1.71 1.87 2.14 1.91 2.94 3.01 2.58 2.96 3.32 3.16 2.63 2.83 2.17 2.05 2.40 2.34 2.52 2.55 2.51 2.97 2.90 2.56 2.06
0.21 0.34 0.32 0.43 0.62 0.17 0.35 0.42 1.24 0.68 0.93 0.77 0.47 0.17 0.06 0.29 0.10 0.09 0.13 0.30 0.17 0.33 0.48 0.78 0.54 0.62 0.60 0.57 0.86 0.48 0.59 0.54 0.91 1.17 1.20 0.87 1.14 0.94 1.03 0.73 1.18 1.65 1.07 0.94 0.86 0.94 1.15 1.00 0.85 0.65 1.58 1.97 1.20 0.87 1.03 1.55 1.78 0.78 1.15 1.13 1.35 1.68 2.16 2.00 1.83 2.02 2.38 2.72 3.19 2.90 2.23 2.96 3.17 3.61 1.54 2.01 2.42 2.61 2.70 3.38 3.78 3.43 3.86 3.48 2.82 2.60
0.25 0.32 0.26 0.43 0.32 0.24 0.30 0.42 0.81 0.75 1.08 1.18 0.48 0.27 0.18 0.07 0.37 0.38 0.13 0.43 0.46 0.60 0.36 0.80 0.83 0.42 0.34 0.50 0.77 0.86 0.75 0.65 0.89 0.76 1.27 1.35 2.22 1.87 1.63 1.26 1.03 1.23 1.79 1.18 1.19 1.40 1.39 1.09 1.08 1.38 1.05 2.34 2.29 1.48 1.37 1.13 0.87 1.27 0.71 0.79 1.15 1.50 1.57 2.04 2.27 2.46 2.05 1.51 2.15 2.76 3.08 2.79 2.16 1.80 1.22 1.24 1.42 2.10 2.83 2.64 2.33 2.58 3.20 2.78 3.45 3.74
0.51 0.45 0.55 0.51 0.51 0.35 0.30 0.39 0.67 0.65 1.38 0.86 0.80 0.31 0.13 0.22 0.31 0.40 0.36 0.79 0.36 0.39 0.38 0.52 0.75 0.94 0.74 0.57 0.87 0.95 1.00 0.97 0.83 0.99 0.99 0.60 0.78 0.86 0.62 0.55 0.58 0.77 1.19 1.16 1.11 0.85 0.84 1.13 1.03 1.69 1.78 1.51 1.56 1.19 1.30 0.56 0.70 0.65 0.88 1.18 0.77 1.08 1.29 1.37 2.20 3.04 2.81 2.34 2.86 3.22 2.38 2.31 2.10 2.00 1.42 1.40 1.19 1.44 1.70 1.81 2.29 2.48 2.43 2.66 2.79 3.21
0.64 0.51 0.48 0.40 0.27 0.63 0.30 0.46 0.41 0.74 0.36 0.45 0.73 0.57 0.24 0.44 0.37 0.39 0.60 3.16 0.44 0.44 0.41 0.37 0.66 0.70 0.78 0.68 0.75 0.84 0.82 1.14 0.94 0.73 0.43 0.79 0.80 0.96 0.85 0.68 0.52 0.42 0.33 0.33 0.36 0.31 0.59 0.73 0.83 1.01 0.81 0.87 1.05 1.14 1.07 0.96 1.28 1.15 1.44 1.01 0.93 1.10 1.01 1.48 1.32 1.54 2.76 2.72 2.16 1.84 1.45 2.11 2.58 1.94 1.64 2.23 2.25 2.43 3.03 3.43 2.92 2.41 3.38 2.87 2.38 3.35
0.62 0.67 0.61 0.40 0.66 0.83 0.52 0.50 0.48 0.94 1.27 0.62 0.41 0.49 1.15 1.07 0.69 1.08 1.07 0.61 1.02 0.77 0.36 0.41 0.38 0.26 0.35 0.75 0.80 0.68 0.88 0.50 0.55 0.37 0.42 0.50 0.29 0.20 0.17 0.23 0.29 0.23 0.26 0.50 0.45 0.20 0.28 0.68 0.86 0.71 0.71 1.17 0.78 0.51 0.71 0.60 1.03 0.90 0.79 0.84 1.37 0.89 1.03 0.83 1.29 1.36 0.91 1.32 1.87 1.50 1.80 2.19 1.71 1.73 2.12 2.65 3.22 4.89 4.98 4.83 3.89 3.69 2.66 2.97 2.59 2.27
1.13 0.76 0.79 0.44 0.52 0.54 0.63 0.71 0.52 0.85 1.85 0.23 0.84 1.37 1.65 0.71 1.64 0.78 0.65 0.39 1.02 0.40 0.35 0.29 0.41 0.28 0.40 0.22 0.24 0.38 0.44 0.51 0.41 0.44 0.40 0.22 0.21 0.19 0.13 0.15 0.14 0.19 0.38 0.35 0.26 0.28 0.19 0.51 0.55 0.50 0.57 0.70 0.99 0.99 0.90 0.56 0.59 0.44 0.51 0.49 0.59 0.63 0.43 0.35 0.89 1.62 1.55 1.53 1.80 1.90 2.37 2.23 2.21 2.26 2.32 2.15 2.06 1.17 1.38 1.33 1.40 1.48 1.57 1.63 1.91 1.96
0.86 0.99 0.96 0.80 0.54 1.39 0.81 0.93 1.05 1.33 0.81 0.57 0.85 2.60 1.23 1.11 0.74 0.49 0.40 0.64 0.95 0.97 0.47 0.41 0.32 0.72 0.36 0.24 0.22 0.44 0.34 0.30 0.21 0.27 0.22 0.20 0.17 0.30 0.21 0.12 0.15 0.21 0.42 0.34 0.48 0.59 0.47 0.60 0.19 0.30 0.78 0.53 0.61 0.65 0.56 0.46 0.37 0.27 0.27 0.52 0.61 0.38 0.74 0.87 0.54 0.41 0.44 0.46 0.62 0.68 0.73 0.86 0.67 0.58 0.52 0.53 0.55 0.46 0.74 0.71 0.60 0.64 0.91 0.87 1.14 1.50
1.10 1.21 1.35 1.08 0.84 0.68 1.29 1.03 1.01 0.56 0.93 0.65 0.82 1.19 1.02 0.88 0.36 0.61 0.31 0.42 0.94 1.37 0.90 0.46 0.29 0.34 0.57 0.28 0.28 0.34 0.42 0.44 0.62 0.47 0.50 0.31 0.29 0.21 0.21 0.15 0.17 0.43 0.25 0.31 0.17 0.30 0.25 0.32 0.43 0.34 0.42 0.21 0.11 0.14 0.15 0.34 0.91 0.52 0.42 0.29 0.21 0.40 0.23 0.23 0.23 0.19 0.11 0.11 0.16 0.17 0.16 0.18 0.20 0.25 0.68 0.58 0.37 0.54 0.47 0.31 0.46 0.73 0.88 1.06 1.07 0.92
0.83 0.87 0.69 0.60 0.61 0.37 0.51 0.58 0.79 0.58 0.50 1.19 0.55 1.32 1.32 1.09 0.46 0.58 0.57 0.52 0.46 0.80 0.82 1.34 0.62 0.51 0.47 0.73 0.47 0.40 0.51 0.85 1.08 0.49 0.52 0.47 0.44 0.43 0.28 0.22 0.20 0.36 0.42 0.29 0.28 0.21 0.50 0.57 0.53 0.55 0.89 0.50 0.31 0.33 0.38 0.37 0.41 0.44 0.49 0.44 0.36 0.24 0.43 0.55 0.77 0.89 1.09 0.86 0.80 0.62 0.31 0.16 0.14 0.25 0.38 0.50 0.56 0.74 0.90 1.35 1.38 1.37 1.18 0.82 1.00 0.84
0.77 0.55 0.74 0.52 0.67 0.33 0.82 0.60 1.05 0.78 0.56 0.83 1.13 1.09 1.57 1.63 1.62 0.85 0.97 0.77 0.89 0.89 0.88 0.69 1.10 0.79 0.92 1.12 0.79 0.78 1.32 1.67 1.65 1.32 0.74 0.79 0.85 0.53 0.17 0.14 0.25 0.47 0.53 0.64 0.50 0.20 0.18 0.42 0.46 1.17 1.43 0.93 0.60 0.56 0.64 0.93 1.04 1.06 0.88 0.74 0.86 1.04 1.46 1.74 1.70 1.64 1.64 1.43 1.45 1.46 1.13 1.02 1.02 0.95 0.78 0.65 0.64 0.60 0.46 0.43 0.61 0.52 0.65 0.60 0.55 0.43
1.39 0.60 0.62 0.45 0.60 0.45 0.72 0.62 0.74 0.81 1.11 1.53 1.08 1.38 1.68 1.60 2.38 1.90 1.44 0.60 0.83 1.86 1.24 1.31 1.33 1.48 1.17 0.84 0.92 0.77 0.77 1.07 1.00 1.81 1.32 1.46 0.91 0.60 0.63 0.34 0.38 0.47 0.52 0.64 0.87 0.92 0.78 1.44 1.56 1.28 0.72 1.15 1.05 0.98 0.95 1.46 1.27 1.47 1.71 1.77 1.23 0.90 0.50 0.69 0.54 0.56 0.43 0.44 0.46 0.43 0.39 0.35 0.25 0.35 0.45 0.50 0.37 0.35 0.19 0.12 0.16 0.22 0.16 0.09 0.08 0.20
1.19 0.52 0.91 0.98 0.62 0.88 0.65 0.82 0.70 0.60 0.60 1.26 1.29 1.52 1.61 2.04 2.02 2.41 1.80 1.20 0.91 1.35 1.48 1.42 1.35 1.81 1.37 0.93 0.70 0.68 0.73 0.83 0.77 0.94 1.54 0.64 0.79 0.70 0.83 0.55 0.42 0.55 0.35 0.35 0.59 0.61 0.58 0.86 0.65 0.57 1.17 0.54 0.67 0.92 1.20 1.59 1.77 1.97 1.66 1.79 2.02 1.60 1.53 1.40 0.99 0.75 0.43 0.31 0.30 0.14 0.11 0.19 0.42 0.40 0.33 0.34 0.22 0.11 0.18 0.08 0.07 0.03 0.09 0.05 0.08 0.13
0.76 0.78 0.73 0.62 0.95 0.73 0.89 1.08 0.70 0.97 1.01 0.79 0.91 0.90 1.22 1.46 1.44 2.10 2.11 2.03 1.93 1.89 2.88 2.16 1.58 1.61 1.45 1.19 1.29 1.59 1.43 0.87 0.77 0.78 1.72 0.72 0.74 1.01 0.86 0.52 0.44 0.55 0.69 0.66 0.63 0.63 0.47 0.78 0.69 0.54 0.69 1.16 1.24 1.18 1.39 1.14 1.02 0.89 1.05 0.86 0.65 0.77 0.92 1.00 1.07 0.98 1.05 0.74 0.66 0.70 0.74 0.51 0.38 0.24 0.24 0.27 0.11 0.13 0.17 0.09 0.10 0.07 0.14 0.23 0.13 0.24
0.92 0.97 0.90 1.21 0.87 0.86 0.92 0.99 0.91 1.05 0.88 0.61 0.62 0.54 0.88 0.93 0.91 1.41 2.10 2.06 1.29 0.82 1.56 2.52 2.22 1.67 1.68 1.53 1.16 0.72 0.67 0.53 0.46 0.23 0.95 1.61 0.76 0.98 0.99 0.64 0.53 0.40 0.65 0.87 0.93 1.20 0.93 0.79 0.60 0.58 0.60 0.62 0.24 0.30 0.60 1.23 1.01 0.68 0.47 0.76 0.69 0.69 0.62 0.71 0.72 0.77 0.90 1.59 1.47 1.25 1.17 0.94 0.90 1.08 1.03 1.11 1.12 0.57 0.43 0.31 0.33 0.25 0.32 0.18 0.22 0.11